Time,TemperatureF,DewpointF,PressureIn,WindDirection,WindDirectionDegrees,WindSpeedMPH,WindSpeedGustMPH,Humidity,HourlyPrecipIn,Conditions,Clouds,dailyrainin,SoftwareType,DateUTC
2013-06-14 07:12:00,59.1,53.3,30.07,North,5,1.0,3.0,81,0.00,,,0.00,Wunderground v.1.15,2013-06-14 12:12:00,
2013-06-14 07:14:00,59.1,53.3,30.07,North,360,1.0,3.0,81,0.00,,,0.00,Wunderground v.1.15,2013-06-14 12:14:00,
2013-06-14 07:15:00,59.1,53.3,30.07,North,360,2.0,3.0,81,0.00,,,0.00,Wunderground v.1.15,2013-06-14 12:15:00,
2013-06-14 07:20:00,59.3,53.8,30.07,NNE,14,2.0,7.0,82,0.00,,,0.00,Wunderground v.1.15,2013-06-14 12:20:00,
2013-06-14 07:26:00,59.6,53.8,30.07,North,5,4.0,6.0,81,0.00,,,0.00,Wunderground v.1.15,2013-06-14 12:26:00,
2013-06-14 07:29:00,59.6,53.8,30.06,North,355,5.0,6.0,81,0.00,,,0.00,Wunderground v.1.15,2013-06-14 12:29:00,
2013-06-14 07:34:00,59.6,53.8,30.07,North,349,5.0,5.0,81,0.00,,,0.00,Wunderground v.1.15,2013-06-14 12:34:00,
2013-06-14 07:40:00,59.7,53.5,30.07,NNE,19,4.0,6.0,80,0.00,,,0.00,Wunderground v.1.15,2013-06-14 12:40:00,
2013-06-14 07:45:00,59.9,53.7,30.07,North,5,4.0,6.0,80,0.00,,,0.00,Wunderground v.1.15,2013-06-14 12:45:00,
2013-06-14 07:50:00,60.1,53.9,30.07,NNE,17,4.0,6.0,80,0.00,,,0.00,Wunderground v.1.15,2013-06-14 12:50:00,
2013-06-14 07:56:00,60.4,54.2,30.08,North,360,4.0,5.0,80,0.00,,,0.00,Wunderground v.1.15,2013-06-14 12:56:00,
2013-06-14 08:02:00,60.6,54.0,30.08,NNE,15,4.0,6.0,79,0.00,,,0.00,Wunderground v.1.15,2013-06-14 13:02:00,
2013-06-14 08:08:00,60.8,54.2,30.09,North,355,4.0,6.0,79,0.00,,,0.00,Wunderground v.1.15,2013-06-14 13:08:00,
2013-06-14 08:13:00,60.9,54.3,30.09,NNE,17,3.0,5.0,79,0.00,,,0.00,Wunderground v.1.15,2013-06-14 13:13:00,
2013-06-14 08:19:00,61.3,55.1,30.09,North,355,4.0,7.0,80,0.00,,,0.00,Wunderground v.1.15,2013-06-14 13:19:00,
2013-06-14 08:25:00,61.4,55.2,30.10,North,5,5.0,7.0,80,0.00,,,0.00,Wunderground v.1.15,2013-06-14 13:25:00,
2013-06-14 08:30:00,61.5,54.9,30.10,NNE,28,5.0,6.0,79,0.00,,,0.00,Wunderground v.1.15,2013-06-14 13:30:00,
2013-06-14 08:36:00,61.6,55.0,30.10,North,5,5.0,7.0,79,0.00,,,0.00,Wunderground v.1.15,2013-06-14 13:36:00,
2013-06-14 08:41:00,61.7,55.1,30.10,North,360,5.0,5.0,79,0.00,,,0.00,Wunderground v.1.15,2013-06-14 13:41:00,
2013-06-14 08:47:00,62.1,55.5,30.10,NNE,15,5.0,5.0,79,0.00,,,0.00,Wunderground v.1.15,2013-06-14 13:47:00,
2013-06-14 08:53:00,62.6,56.0,30.10,North,10,5.0,8.0,79,0.00,,,0.00,Wunderground v.1.15,2013-06-14 13:53:00,
2013-06-14 08:59:00,62.8,55.5,30.10,NNE,27,6.0,8.0,77,0.00,,,0.00,Wunderground v.1.15,2013-06-14 13:59:00,
2013-06-14 09:04:00,62.8,55.8,30.10,NNW,336,6.0,6.0,78,0.00,,,0.00,Wunderground v.1.15,2013-06-14 14:04:00,
2013-06-14 09:09:00,63.0,55.7,30.09,North,11,5.0,7.0,77,0.00,,,0.00,Wunderground v.1.15,2013-06-14 14:09:00,
2013-06-14 09:15:00,63.5,57.2,30.09,North,355,4.0,5.0,80,0.00,,,0.00,Wunderground v.1.15,2013-06-14 14:15:00,
2013-06-14 09:20:00,63.7,56.4,30.09,NNE,17,4.0,5.0,77,0.00,,,0.00,Wunderground v.1.15,2013-06-14 14:20:00,
2013-06-14 09:26:00,64.1,57.1,30.09,NNE,14,4.0,5.0,78,0.00,,,0.00,Wunderground v.1.15,2013-06-14 14:26:00,
2013-06-14 09:31:00,64.4,56.7,30.09,NNE,15,5.0,6.0,76,0.00,,,0.00,Wunderground v.1.15,2013-06-14 14:31:00,
2013-06-14 09:37:00,64.4,57.0,30.10,North,5,4.0,6.0,77,0.00,,,0.00,Wunderground v.1.15,2013-06-14 14:37:00,
2013-06-14 09:43:00,64.9,57.5,30.10,North,10,4.0,6.0,77,0.00,,,0.00,Wunderground v.1.15,2013-06-14 14:43:00,
2013-06-14 09:48:00,65.2,57.1,30.10,North,355,5.0,6.0,75,0.00,,,0.00,Wunderground v.1.15,2013-06-14 14:48:00,
2013-06-14 09:54:00,65.7,57.6,30.09,North,11,4.0,5.0,75,0.00,,,0.00,Wunderground v.1.15,2013-06-14 14:54:00,
2013-06-14 10:00:00,65.9,57.7,30.09,NNE,19,3.0,4.0,75,0.00,,,0.00,Wunderground v.1.15,2013-06-14 15:00:00,
2013-06-14 10:05:00,66.0,57.1,30.10,NNE,26,4.0,6.0,73,0.00,,,0.00,Wunderground v.1.15,2013-06-14 15:05:00,
2013-06-14 10:10:00,66.2,58.0,30.10,NW,312,4.0,4.0,75,0.00,,,0.00,Wunderground v.1.15,2013-06-14 15:10:00,
2013-06-14 10:16:00,66.5,57.6,30.09,NNE,17,4.0,5.0,73,0.00,,,0.00,Wunderground v.1.15,2013-06-14 15:16:00,
2013-06-14 10:21:00,66.8,59.4,30.10,North,355,3.0,3.0,77,0.00,,,0.00,Wunderground v.1.15,2013-06-14 15:21:00,
2013-06-14 10:27:00,66.9,57.6,30.09,NNE,32,2.0,3.0,72,0.00,,,0.00,Wunderground v.1.15,2013-06-14 15:27:00,
2013-06-14 10:33:00,67.0,59.2,30.09,ENE,66,2.0,3.0,76,0.00,,,0.00,Wunderground v.1.15,2013-06-14 15:33:00,
2013-06-14 10:38:00,67.1,58.5,30.08,NNE,22,3.0,5.0,74,0.00,,,0.00,Wunderground v.1.15,2013-06-14 15:38:00,
2013-06-14 10:44:00,67.3,59.1,30.08,NNE,28,3.0,5.0,75,0.00,,,0.00,Wunderground v.1.15,2013-06-14 15:44:00,
2013-06-14 10:50:00,67.5,58.9,30.08,ENE,74,4.0,7.0,74,0.00,,,0.00,Wunderground v.1.15,2013-06-14 15:50:00,
2013-06-14 10:55:00,67.7,60.2,30.07,NNE,17,5.0,7.0,77,0.00,,,0.00,Wunderground v.1.15,2013-06-14 15:55:00,
2013-06-14 11:01:00,67.8,58.8,30.07,ENE,78,6.0,8.0,73,0.00,,,0.00,Wunderground v.1.15,2013-06-14 16:01:00,
2013-06-14 11:07:00,67.8,60.0,30.07,NE,56,6.0,8.0,76,0.00,,,0.00,Wunderground v.1.15,2013-06-14 16:07:00,
2013-06-14 11:13:00,68.2,61.1,30.07,NE,53,7.0,10.0,78,0.00,,,0.00,Wunderground v.1.15,2013-06-14 16:13:00,
2013-06-14 11:18:00,68.6,61.1,30.07,East,90,7.0,10.0,77,0.00,,,0.00,Wunderground v.1.15,2013-06-14 16:18:00,
2013-06-14 11:24:00,69.0,60.4,30.07,ENE,74,6.0,9.0,74,0.00,,,0.00,Wunderground v.1.15,2013-06-14 16:24:00,
2013-06-14 11:30:00,69.2,60.9,30.06,ENE,63,6.0,9.0,75,0.00,,,0.00,Wunderground v.1.15,2013-06-14 16:30:00,
2013-06-14 11:36:00,69.3,61.0,30.06,ENE,58,7.0,11.0,75,0.00,,,0.00,Wunderground v.1.15,2013-06-14 16:36:00,
2013-06-14 11:41:00,69.8,62.3,30.06,East,80,7.0,8.0,77,0.00,,,0.00,Wunderground v.1.15,2013-06-14 16:41:00,
2013-06-14 11:47:00,70.1,62.2,30.06,ENE,74,7.0,9.0,76,0.00,,,0.00,Wunderground v.1.15,2013-06-14 16:47:00,
2013-06-14 11:53:00,70.0,61.7,30.06,NNE,27,8.0,11.0,75,0.00,,,0.00,Wunderground v.1.15,2013-06-14 16:53:00,
2013-06-14 11:58:00,70.4,62.1,30.06,NE,55,7.0,11.0,75,0.00,,,0.00,Wunderground v.1.15,2013-06-14 16:58:00,
2013-06-14 12:04:00,70.9,62.2,30.06,NE,47,8.0,11.0,74,0.00,,,0.00,Wunderground v.1.15,2013-06-14 17:04:00,
2013-06-14 12:09:00,70.9,61.0,30.06,East,89,9.0,13.0,71,0.00,,,0.00,Wunderground v.1.15,2013-06-14 17:09:00,
2013-06-14 12:14:00,71.2,61.3,30.06,East,88,8.0,10.0,71,0.00,,,0.00,Wunderground v.1.15,2013-06-14 17:14:00,
2013-06-14 12:20:00,71.3,62.2,30.06,ENE,76,7.0,7.0,73,0.00,,,0.00,Wunderground v.1.15,2013-06-14 17:20:00,
2013-06-14 12:26:00,71.8,64.2,30.05,East,94,6.0,9.0,77,0.00,,,0.00,Wunderground v.1.15,2013-06-14 17:26:00,
2013-06-14 12:32:00,72.1,62.2,30.06,East,94,8.0,9.0,71,0.00,,,0.00,Wunderground v.1.15,2013-06-14 17:32:00,
2013-06-14 12:37:00,72.3,62.0,30.06,NE,56,7.0,9.0,70,0.00,,,0.00,Wunderground v.1.15,2013-06-14 17:37:00,
2013-06-14 12:43:00,72.7,63.1,30.07,ENE,69,4.0,6.0,72,0.00,,,0.00,Wunderground v.1.15,2013-06-14 17:43:00,
2013-06-14 12:49:00,73.0,62.2,30.07,NE,36,4.0,7.0,69,0.00,,,0.00,Wunderground v.1.15,2013-06-14 17:49:00,
2013-06-14 12:55:00,72.9,61.3,30.07,ENE,73,5.0,7.0,67,0.00,,,0.00,Wunderground v.1.15,2013-06-14 17:55:00,
2013-06-14 13:00:00,73.0,61.8,30.07,East,81,4.0,4.0,68,0.00,,,0.00,Wunderground v.1.15,2013-06-14 18:00:00,
2013-06-14 13:06:00,73.3,61.3,30.07,NE,44,3.0,5.0,66,0.00,,,0.00,Wunderground v.1.15,2013-06-14 18:06:00,
2013-06-14 13:11:00,73.6,61.1,30.07,ENE,64,3.0,3.0,65,0.00,,,0.00,Wunderground v.1.15,2013-06-14 18:11:00,
2013-06-14 13:17:00,73.8,60.4,30.07,East,94,3.0,5.0,63,0.00,,,0.00,Wunderground v.1.15,2013-06-14 18:17:00,
2013-06-14 13:22:00,74.0,59.7,30.07,NNE,12,4.0,4.0,61,0.00,,,0.00,Wunderground v.1.15,2013-06-14 18:22:00,
2013-06-14 13:28:00,74.2,59.9,30.07,East,96,4.0,6.0,61,0.00,,,0.00,Wunderground v.1.15,2013-06-14 18:28:00,
2013-06-14 13:34:00,74.5,62.0,30.07,East,80,3.0,4.0,65,0.00,,,0.00,Wunderground v.1.15,2013-06-14 18:34:00,
2013-06-14 13:40:00,74.6,61.6,30.07,NNW,344,3.0,3.0,64,0.00,,,0.00,Wunderground v.1.15,2013-06-14 18:40:00,
2013-06-14 13:45:00,74.4,60.1,30.07,North,5,3.0,3.0,61,0.00,,,0.00,Wunderground v.1.15,2013-06-14 18:45:00,
2013-06-14 13:51:00,74.8,60.4,30.06,NNE,32,3.0,7.0,61,0.00,,,0.00,Wunderground v.1.15,2013-06-14 18:51:00,
2013-06-14 13:59:00,75.1,61.6,30.06,NNE,19,5.0,8.0,63,0.00,,,0.00,Wunderground v.1.15,2013-06-14 18:59:00,
2013-06-14 14:04:00,75.3,60.9,30.06,NE,38,3.0,5.0,61,0.00,,,0.00,Wunderground v.1.15,2013-06-14 19:04:00,
2013-06-14 14:09:00,75.2,59.4,30.06,NE,53,3.0,5.0,58,0.00,,,0.00,Wunderground v.1.15,2013-06-14 19:09:00,
2013-06-14 14:15:00,75.3,59.0,30.06,ESE,106,3.0,5.0,57,0.00,,,0.00,Wunderground v.1.15,2013-06-14 19:15:00,
2013-06-14 14:20:00,75.5,60.2,30.06,East,88,1.0,5.0,59,0.00,,,0.00,Wunderground v.1.15,2013-06-14 19:20:00,
2013-06-14 14:26:00,75.7,58.4,30.06,NE,53,2.0,5.0,55,0.00,,,0.00,Wunderground v.1.15,2013-06-14 19:26:00,
2013-06-14 14:31:00,75.8,58.0,30.06,NE,45,2.0,3.0,54,0.00,,,0.00,Wunderground v.1.15,2013-06-14 19:31:00,
2013-06-14 14:37:00,76.1,57.7,30.06,WSW,254,1.0,3.0,53,0.00,,,0.00,Wunderground v.1.15,2013-06-14 19:37:00,
2013-06-14 14:43:00,76.7,59.8,30.05,ESE,105,2.0,4.0,56,0.00,,,0.00,Wunderground v.1.15,2013-06-14 19:43:00,
2013-06-14 14:48:00,76.9,58.5,30.05,ESE,120,3.0,6.0,53,0.00,,,0.00,Wunderground v.1.15,2013-06-14 19:48:00,
2013-06-14 14:54:00,76.4,60.0,30.04,South,172,4.0,6.0,57,0.00,,,0.00,Wunderground v.1.15,2013-06-14 19:54:00,
2013-06-14 15:00:00,76.2,58.3,30.04,SSE,159,3.0,3.0,54,0.00,,,0.00,Wunderground v.1.15,2013-06-14 20:00:00,
2013-06-14 15:05:00,76.5,59.1,30.04,SSE,159,2.0,3.0,55,0.00,,,0.00,Wunderground v.1.15,2013-06-14 20:05:00,
2013-06-14 15:11:00,76.8,58.9,30.04,ENE,69,2.0,3.0,54,0.00,,,0.00,Wunderground v.1.15,2013-06-14 20:11:00,
2013-06-14 15:16:00,76.8,57.8,30.04,NNE,26,3.0,4.0,52,0.00,,,0.00,Wunderground v.1.15,2013-06-14 20:16:00,
2013-06-14 15:21:00,76.9,60.0,30.03,NE,40,2.0,4.0,56,0.00,,,0.00,Wunderground v.1.15,2013-06-14 20:21:00,
2013-06-14 15:27:00,76.8,58.9,30.04,NNE,25,3.0,6.0,54,0.00,,,0.00,Wunderground v.1.15,2013-06-14 20:27:00,
2013-06-14 15:33:00,76.7,58.8,30.04,NE,42,4.0,4.0,54,0.00,,,0.00,Wunderground v.1.15,2013-06-14 20:33:00,
2013-06-14 15:38:00,76.8,58.9,30.04,NE,53,3.0,4.0,54,0.00,,,0.00,Wunderground v.1.15,2013-06-14 20:38:00,
2013-06-14 15:44:00,76.9,58.5,30.03,East,82,2.0,3.0,53,0.00,,,0.00,Wunderground v.1.15,2013-06-14 20:44:00,
2013-06-14 15:50:00,77.0,57.5,30.03,NNE,31,2.0,2.0,51,0.00,,,0.00,Wunderground v.1.15,2013-06-14 20:50:00,
2013-06-14 15:55:00,77.3,58.3,30.03,NNE,31,1.0,2.0,52,0.00,,,0.00,Wunderground v.1.15,2013-06-14 20:55:00,
2013-06-14 16:01:00,77.8,58.2,30.03,North,5,1.0,2.0,51,0.00,,,0.00,Wunderground v.1.15,2013-06-14 21:01:00,
2013-06-14 16:07:00,77.6,58.0,30.02,West,271,2.0,4.0,51,0.00,,,0.00,Wunderground v.1.15,2013-06-14 21:07:00,
2013-06-14 16:13:00,77.9,58.9,30.02,SW,218,1.0,2.0,52,0.00,,,0.00,Wunderground v.1.15,2013-06-14 21:13:00,
2013-06-14 16:19:00,78.0,58.4,30.02,SW,214,2.0,3.0,51,0.00,,,0.00,Wunderground v.1.15,2013-06-14 21:19:00,
2013-06-14 16:24:00,78.0,58.9,30.01,South,171,1.0,2.0,52,0.00,,,0.00,Wunderground v.1.15,2013-06-14 21:24:00,
2013-06-14 16:30:00,78.2,58.6,30.01,WNW,286,1.0,1.0,51,0.00,,,0.00,Wunderground v.1.15,2013-06-14 21:30:00,
2013-06-14 16:36:00,78.5,61.0,30.01,East,86,1.0,2.0,55,0.00,,,0.00,Wunderground v.1.15,2013-06-14 21:36:00,
2013-06-14 16:41:00,78.5,59.4,30.01,NE,38,1.0,3.0,52,0.00,,,0.00,Wunderground v.1.15,2013-06-14 21:41:00,
2013-06-14 16:47:00,78.4,59.3,30.00,ENE,70,1.0,3.0,52,0.00,,,0.00,Wunderground v.1.15,2013-06-14 21:47:00,
2013-06-14 16:53:00,78.2,60.2,30.00,ENE,70,1.0,2.0,54,0.00,,,0.00,Wunderground v.1.15,2013-06-14 21:53:00,
2013-06-14 16:58:00,78.3,58.7,30.00,East,81,1.0,3.0,51,0.00,,,0.00,Wunderground v.1.15,2013-06-14 21:58:00,
2013-06-14 17:04:00,78.2,59.1,30.00,SE,140,1.0,2.0,52,0.00,,,0.00,Wunderground v.1.15,2013-06-14 22:04:00,
2013-06-14 17:09:00,78.4,59.9,30.00,NE,43,1.0,4.0,53,0.00,,,0.00,Wunderground v.1.15,2013-06-14 22:09:00,
2013-06-14 17:15:00,78.4,58.8,29.99,East,90,2.0,2.0,51,0.00,,,0.00,Wunderground v.1.15,2013-06-14 22:15:00,
2013-06-14 17:20:00,78.2,59.1,29.99,SE,144,2.0,2.0,52,0.00,,,0.00,Wunderground v.1.15,2013-06-14 22:20:00,
2013-06-14 17:26:00,77.8,59.3,29.98,ESE,115,4.0,7.0,53,0.00,,,0.00,Wunderground v.1.15,2013-06-14 22:26:00,
2013-06-14 17:32:00,77.5,58.5,29.98,SE,138,3.0,4.0,52,0.00,,,0.00,Wunderground v.1.15,2013-06-14 22:32:00,
2013-06-14 17:37:00,77.5,59.0,29.98,ESE,115,2.0,4.0,53,0.00,,,0.00,Wunderground v.1.15,2013-06-14 22:37:00,
2013-06-14 17:42:00,77.6,59.6,29.98,ESE,120,2.0,5.0,54,0.00,,,0.00,Wunderground v.1.15,2013-06-14 22:42:00,
2013-06-14 17:48:00,77.6,59.6,29.98,ESE,105,4.0,6.0,54,0.00,,,0.00,Wunderground v.1.15,2013-06-14 22:48:00,
2013-06-14 17:54:00,77.5,58.5,29.98,SE,134,3.0,4.0,52,0.00,,,0.00,Wunderground v.1.15,2013-06-14 22:54:00,
2013-06-14 18:00:00,77.5,59.5,29.98,East,88,3.0,3.0,54,0.00,,,0.00,Wunderground v.1.15,2013-06-14 23:00:00,
2013-06-14 18:05:00,77.5,60.6,29.98,East,96,3.0,6.0,56,0.00,,,0.00,Wunderground v.1.15,2013-06-14 23:05:00,
2013-06-14 18:10:00,77.2,58.7,29.98,ESE,104,5.0,5.0,53,0.00,,,0.00,Wunderground v.1.15,2013-06-14 23:10:00,
2013-06-14 18:16:00,77.2,58.7,29.98,ESE,121,3.0,5.0,53,0.00,,,0.00,Wunderground v.1.15,2013-06-14 23:16:00,
2013-06-14 18:21:00,77.2,59.8,29.98,SE,142,3.0,7.0,55,0.00,,,0.00,Wunderground v.1.15,2013-06-14 23:21:00,
2013-06-14 18:27:00,77.1,61.2,29.97,East,100,4.0,7.0,58,0.00,,,0.00,Wunderground v.1.15,2013-06-14 23:27:00,